Kosmos-1132

operational
NORAD ID: 11540 Int'l Des: 1979-084 Owner: GUKOSR Country: SU
LEOCIRCULAR

Kosmos-1132について

説明を読み込み中...

リアルタイム位置

3D地球を読み込み中...

次回通過

高度履歴

Altitude vs Time

uPlot chart will show altitude changes over time

軌道要素

1 11540U 79084C 26061.11195626 -.00000018 00000-0 -13511-4 0 9991
2 11540 74.0288 356.5059 0035348 75.2182 296.9746 12.52666704123269
Epoch: Mar 2, 2026 • Age: 41 hours

現在のステータス

高度 1435.3 km
速度 7.16 km/s
衛星直下点 55.63°N, 41.55°W
打ち上げ日 Sep 25, 1979
運用期間 46.4 years
タイプ other

技術仕様

分類 Payload
質量 60.00 kg
乾燥質量 60.00 kg
総質量 60.00 kg
長さ 0.80 m
直径 0.80 m
スパン 0.80 m
形状 Poly
製造者 NPOPM
バスタイプ Strela-1 11F625
フェーズステータス In Orbit
所有者/国 GUKOSR/SU

大規模コンステレーション

Loading constellations...